Regional Weather Roundup
Issued by NWS

Home | Current Version | Previous Version | Graphics & Text | Print | Product List | Glossary Off
Versions: 1 2 3 4 5 6 7 8 9 10 11 12 13 14 15 16 17 18 19 20 21 22 23 24 25 26 27 28 29 30 31 32 33 34 35 36 37 38 39 40 41 42 43 44 45 46 47 48 49 50

000
ASUS43 KMPX 301310
RWRMN
WEATHER ROUNDUP FOR MINNESOTA
NATIONAL WEATHER SERVICE TWIN CITIES/CHANHASSEN MN
800 AM CDT SAT MAY 30 2015


NOTE: "FAIR" INDICATES FEW OR NO CLOUDS BELOW 12,000 FEET WITH NO
SIGNIFICANT WEATHER AND/OR OBSTRUCTIONS TO VISIBILITY. N/A MEANS
CURRENT SKY AND/OR WEATHER CONDITIONS ARE NOT AVAILABLE.

MNZ060>063-068>070-301400-
   Twin Cities Metro

CITY           SKY/WX    TMP DP  RH WIND       PRES   REMARKS
TWIN CITIES    PTSUNNY   49  39  68 N16       30.20R
ST PAUL        MOSUNNY   49  39  68 N15G22    30.20R
CRYSTAL        MOSUNNY   49  38  65 N13G20    30.19R
LAKEVILLE      PTSUNNY   46  39  76 N14G21    30.18R
EDEN PRAIRIE   MOSUNNY   49  38  65 N13       30.18R
SOUTH ST PAUL  MOSUNNY   49  39  67 N12G22    30.19R
LAKE ELMO      FAIR      46  39  76 N15G21    30.19S
$$
MNZ001>005-007-008-013>017-022>024-027-028-301400-
   Northwest Minnesota

CITY           SKY/WX    TMP DP  RH WIND       PRES   REMARKS
BEMIDJI        CLOUDY    39  31  73 N12G17    30.32R
HALLOCK        SUNNY     37  25  60 N10       30.42R
ROSEAU         SUNNY     36  28  75 N10       30.39R
WARROAD        PTSUNNY   37  28  70 N8        30.38S
THIEF RVR FALL SUNNY     36  28  75 N13       30.38S
CROOKSTON      SUNNY     37  27  65 NE13G18   30.40R
FOSSTON        SUNNY     37  30  75 N12       30.35R
DETROIT LAKES  MOSUNNY   39  32  75 NE10      30.33R
MOORHEAD       SUNNY     36  30  80 N14       30.37S
PARK RAPIDS    CLOUDY    40  32  73 N15       30.29S
MAHNOMEN       FAIR      36  30  78 NE15      30.33S
$$
MNZ006-009>011-018-025>026-301400-
   North Central Minnesota

CITY           SKY/WX    TMP DP  RH WIND       PRES   REMARKS
BAUDETTE       CLOUDY    38  27  64 NE8       30.36R
FLAG ISLAND    MOSUNNY   36  25  64 NE14      30.37S
INTL FALLS     PTSUNNY   36  25  64 N10       30.35R
WASKISH        PTSUNNY   37  28  70 N9        30.35R
BIG FORK       MOSUNNY   37  28  70 N8        30.32R
LONGVILLE      PTSUNNY   39  32  75 N7        30.29R
GRAND RAPIDS   CLOUDY    37  28  70 N14G23    30.29R
CRANE LAKE     CLOUDY    34  30  86 N10G16    30.35R WCI  26
ORR            CLOUDY    36  25  64 N6        30.29R
COOK           CLOUDY    36  32  87 N9G16     30.30R
WALKER         CLOUDY    39  31  72 NE10G16   30.31R
$$
MNZ012-019>021-037-301400-
   Northeast Minnesota

CITY           SKY/WX    TMP DP  RH WIND       PRES   REMARKS
DULUTH         MOSUNNY   44  34  67 N17G25    30.23R
HIBBING        PTSUNNY   40  30  67 N14       30.27R
EVELETH        PTSUNNY   39  32  75 N10G21    30.27R
DULUTH HARBOR  SUNNY     46  37  71 N10       30.25R
TWO HARBORS    SUNNY     46  37  71 N6G17     30.22R
SILVER BAY     SUNNY     46  36  66 N9G17     30.22R
GRAND MARAIS     N/A     45  31  58 N10G25    30.19R
G MARAIS ARPRT SUNNY     39  28  65 NW18      30.21R
$$
MNZ029>031-032-039>041-046>048-054>057-064-301400-
   West Central Minnesota

CITY           SKY/WX    TMP DP  RH WIND       PRES   REMARKS
FERGUS FALLS   SUNNY     39  34  81 NE6       30.33R
WHEATON        SUNNY     37  32  81 N13G18    30.36R
MORRIS         SUNNY     43  37  81 N12       30.30R
ALEXANDRIA     MOSUNNY   42  35  76 NE13      30.30R
ELBOW LAKE     FAIR      41  37  83 N8        30.31R
WADENA         SUNNY     39  34  81 N13       30.29R
GLENWOOD       SUNNY     43  37  81 N14       30.29R
APPLETON       SUNNY     45  37  76 N13       30.30R
BENSON         SUNNY     46  37  71 NE13      30.29R
ORTONVILLE     SUNNY     39  34  81 N13       30.31S
MADISON        SUNNY     43  36  75 N15       30.30R
WILLMAR        FAIR      46  41  81 N14       30.28R
$$
MNZ033>034-036-042>043-049>051-058-059-301400-
   Central Minnesota

CITY           SKY/WX    TMP DP  RH WIND       PRES   REMARKS
ST CLOUD       SUNNY     46  37  71 N14G21    30.24R
SAUK CENTRE    FAIR      43  37  79 N14G20    30.27R
PAYNESVILLE    SUNNY     42  37  84 NW13      30.26R
AITKIN         CLOUDY    43  34  70 N10G16    30.26R
PINE RIVER     CLOUDY    41  34  75 N10       30.31R
BRAINERD       PTSUNNY   44  34  67 N10G20    30.28R
STAPLES        PTSUNNY   41  36  81 N9        30.29R
LONG PRAIRIE   FAIR      41  36  81 N13       30.28R
LITTLE FALLS   SUNNY     43  34  70 N6        30.27R
LITCHFIELD     SUNNY     48  39  71 N17       30.24S
BUFFALO        SUNNY     47  38  69 N7        30.24R
MAPLE LAKE     SUNNY     48  40  75 N13G22    30.24R
$$
MNZ037-044-045-052-053-301400-
   East Central Minnesota

CITY           SKY/WX    TMP DP  RH WIND       PRES   REMARKS
PRINCETON      SUNNY     48  37  66 N15G22    30.24R
MORA           SUNNY     45  36  70 N3        30.25R
CAMBRIDGE      SUNNY     48  36  61 N9G17     30.21R
RUSH CITY      SUNNY     46  38  74 N8G22     30.23R
MOOSE LAKE     SUNNY     43  34  70 N10G18    30.23R
HINCKLEY       FAIR      45  37  76 N8        30.23R
CLOQUET        SUNNY     43  34  70 N10G18    30.24R
MCGREGOR       PTSUNNY   43  36  75 N12       30.26R
$$
MNZ071>073-080-081-089-090-097-098-301400-
   Southwest Minnesota

CITY           SKY/WX    TMP DP  RH WIND       PRES   REMARKS
MONTEVIDEO     SUNNY     46  39  76 NE12G17   30.29R
GRANITE FALLS  SUNNY     45  40  81 N12G18    30.28R
CANBY          SUNNY     42  37  82 N12G17    30.31R
MARSHALL       SUNNY     45  36  70 N20       30.26R
REDWOOD FALLS  MOSUNNY   48  41  76 N12       30.24R
OLIVIA         SUNNY     46  41  81 N15       30.24R
PIPESTONE      MOSUNNY   43  37  81 N14G21    30.24R
WINDOM         PTSUNNY   46  43  87 N16       30.21R
WORTHINGTON    CLOUDY    46  37  71 N20       30.21R
JACKSON        PTSUNNY   46  41  81 VRB16G24  30.20R
TRACY          MOSUNNY   45  42  88 N17       30.25R
SLAYTON        MOSUNNY   44  41  91 N20       30.24R
$$
MNZ065>067-074>077-082>085-091>093-301400-
   South Central Minnesota

CITY           SKY/WX    TMP DP  RH WIND       PRES   REMARKS
MANKATO        MOSUNNY   48  39  71 N16G24    30.18S
NEW ULM        MOSUNNY   46  39  76 N12G17    30.20R
ST JAMES       PTSUNNY   50  43  76 N18       30.21R
FAIRMONT       CLOUDY    48  37  66 N18       30.17R
GLENCOE        MOSUNNY   49  41  74 N14G21    30.20S
FARIBAULT      CLOUDY    48  41  76 N12       30.17R
OWATONNA       CLOUDY    48  41  76 N17G23    30.15R
WASECA         CLOUDY    50  43  76 N16       30.17R
ALBERT LEA     CLOUDY    52  46  82 N15G24    30.13R
$$
MNZ078>079-086>088-094>096-301400-
   Southeast Minnesota

CITY           SKY/WX    TMP DP  RH WIND       PRES   REMARKS
ROCHESTER      CLOUDY    50  46  86 N22       30.12R
RED WING       CLOUDY    52  43  71 N13       30.15R
STANTON        CLOUDY    50  43  76 N16       30.15R
DODGE CENTER   CLOUDY    50  46  87 N17       30.12S
WINONA         CLOUDY    54  48  82 N3        30.11R
AUSTIN         CLOUDY    50  45  81 N13G22    30.11R
PRESTON        CLOUDY    49  46  89 N14G21    30.09R
$$
ABBREVIATIONS USED IN REMARKS
   TC - TEMPERATURES IN CELSIUS
  WCI - WIND CHILL INDEX
   HX - HEAT INDEX
  VSB - VISIBILITY
$$


USA.gov is the U.S. government's official web portal to all federal, state and local government web resources and services.